Location: Castle
(40.7167°S, 175.9500°E)
Time: 03:19:48
(UTC+00:00)

CZ-4 R/B - Pass Details

Date: 04 August 2024
Orbit: 564 x 573 km, 97.7° (Epoch: 07 September)

Event Time Altitude Azimuth Distance (km) Brightness Sun altitude
Rises 18:30:43 0° 11° (N) 2,778 8.3 -9.4°
Reaches altitude 10° 18:32:51 10° 10° (N) 1,886 7.4 -9.0°
Maximum altitude 18:36:57 80° 283° (WNW) 594 4.4 -8.3°
Drops below altitude 10° 18:41:06 10° 194° (SSW) 1,906 6.8 -7.5°
Sets 18:43:16 0° 193° (SSW) 2,811 7.6 -7.1°
